TimeIST,TemperatureF,Dew PointF,Humidity,Sea Level PressureIn,VisibilityMPH,Wind Direction,Wind SpeedMPH,Gust SpeedMPH,PrecipitationIn,Events,Conditions,WindDirDegrees,DateUTC
12:00 AM,89.6,50.0,26,29.65,2.2,ENE,5.8,-,N/A,,Haze,60,2013-05-14 18:30:00
1:00 AM,89.6,50.0,26,29.65,2.2,East,5.8,-,N/A,,Haze,80,2013-05-14 19:30:00
2:30 AM,85,51,21,29.55,1,SE,1.2,,,,Haze,140,2013-05-14 21:00:00
4:00 AM,82.4,51.8,35,29.62,2.2,Calm,Calm,-,N/A,,Haze,0,2013-05-14 22:30:00
5:00 AM,82.4,51.8,35,29.65,2.2,Calm,Calm,-,N/A,,Haze,0,2013-05-14 23:30:00
5:30 AM,82,55,29,29.57,1,West,4.6,,,,Haze,270,2013-05-15 00:00:00
6:00 AM,80.6,55.4,42,29.65,2.2,WNW,3.5,-,N/A,,Haze,290,2013-05-15 00:30:00
7:00 AM,84.2,53.6,35,29.68,2.2,WNW,4.6,-,N/A,,Haze,290,2013-05-15 01:30:00
8:00 AM,89.6,53.6,29,29.68,2.5,WNW,4.6,-,N/A,,Haze,290,2013-05-15 02:30:00
8:30 AM,90,52,18,29.58,2,WSW,4.6,,,,Haze,250,2013-05-15 03:00:00
9:00 AM,93.2,51.8,24,29.68,2.5,WSW,5.8,-,N/A,,Haze,250,2013-05-15 03:30:00
10:00 AM,96.8,50.0,20,29.68,2.5,West,12.7,-,N/A,,Haze,280,2013-05-15 04:30:00
11:00 AM,100.4,48.2,17,29.68,2.5,West,9.2,-,N/A,,Haze,270,2013-05-15 05:30:00
11:30 AM,102,47,9,29.55,2,NW,9.2,,,,Haze,320,2013-05-15 06:00:00
12:00 PM,104.0,46.4,14,29.65,2.5,West,13.8,25.3,N/A,,Haze,280,2013-05-15 06:30:00
1:00 PM,105.8,41.0,11,29.65,2.5,WNW,16.1,-,N/A,,Haze,290,2013-05-15 07:30:00
2:00 PM,104.0,41.0,12,29.62,2.5,WNW,15.0,-,N/A,,Haze,300,2013-05-15 08:30:00
2:30 PM,104,44,7,29.49,2,NW,5.8,,,,Haze,320,2013-05-15 09:00:00
3:00 PM,95.0,48.2,20,29.65,1.2,NW,19.6,-,N/A,,Widespread Dust,310,2013-05-15 09:30:00
5:00 PM,100.4,44.6,15,29.59,2.5,SW,6.9,-,N/A,,Haze,220,2013-05-15 11:30:00
5:30 PM,100,53,12,29.50,2,NW,2.3,,,,Haze,320,2013-05-15 12:00:00
6:00 PM,98.6,46.4,17,29.62,2.5,NW,5.8,-,N/A,,Haze,310,2013-05-15 12:30:00
7:00 PM,96.8,48.2,19,29.59,2.5,Variable,3.5,-,N/A,,Haze,0,2013-05-15 13:30:00
8:00 PM,91.4,53.6,28,29.62,2.5,Calm,Calm,-,N/A,,Haze,0,2013-05-15 14:30:00
8:30 PM,92,52,16,29.53,2,Calm,Calm,,,,Haze,,2013-05-15 15:00:00
9:00 PM,93.2,51.8,24,29.62,2.5,Variable,1.2,-,N/A,,Haze,0,2013-05-15 15:30:00
10:00 PM,91.4,48.2,23,29.65,2.5,East,6.9,-,N/A,,Haze,80,2013-05-15 16:30:00
11:00 PM,89.6,50.0,26,29.65,2.5,ENE,5.8,-,N/A,,Haze,60,2013-05-15 17:30:00
11:30 PM,88,54,22,29.55,2,,3.5,,,,Haze,,2013-05-15 18:00:00